Temperature
18 19 18 17 17 17 17 16 16 16 16 16 16 16 16 16 16 15 15 15 15 15 15 15 15 15 15 15 15 15 15 15 15 15 15 15 15 15 15 14 15 15 15
20 19 18 17 17 17 17 16 16 16 16 16 16 16 16 16 15 15 15 15 15 15 15 15 15 15 15 15 15 15 15 15 15 15 15 15 15 15 15 15 15 15 15
20 19 18 17 17 17 16 16 16 16 16 16 16 16 16 16 15 15 15 15 15 16 15 15 15 15 15 15 15 15 15 14 14 14 14 15 15 15 15 15 15 15 15
20 19 18 17 17 17 16 16 16 16 16 16 16 16 16 16 16 15 15 15 15 15 15 15 15 15 15 15 15 15 15 14 14 14 14 15 15 15 15 15 15 15 15
19 19 18 17 17 16 16 16 16 16 16 16 16 16 16 16 16 15 15 16 15 16 16 16 16 16 16 15 15 15 15 14 14 14 15 15 15 15 15 15 15 15 15
18 18 18 17 16 16 16 16 16 16 16 16 16 16 16 16 16 16 16 16 16 16 16 16 16 16 16 15 15 15 14 14 14 14 15 15 15 15 16 16 15 15 15
17 18 17 17 16 16 16 16 16 16 16 16 16 16 16 16 16 16 16 16 16 16 16 16 16 16 16 15 15 15 15 14 14 15 15 15 15 15 16 16 16 15 15
17 17 17 16 16 16 16 16 16 16 16 16 16 16 16 16 16 16 16 16 16 16 16 16 16 16 16 16 15 15 15 14 14 15 15 15 15 15 16 16 16 15 15
17 17 17 16 16 16 16 16 16 16 16 16 16 16 16 16 16 16 16 16 16 16 16 16 16 16 16 16 15 15 15 15 14 15 15 15 15 16 16 15 15 15 15
16 16 16 16 16 16 16 15 16 16 16 16 15 16 16 16 16 16 16 16 16 16 16 16 16 16 16 16 15 15 15 14 14 15 15 15 15 16 16 15 15 15 15
16 16 16 16 16 16 16 15 15 16 15 15 15 16 16 16 16 16 16 16 16 16 16 16 16 16 16 16 15 15 15 14 14 15 15 15 15 15 15 15 15 15 15
16 16 16 16 16 16 16 16 15 15 15 15 16 15 16 15 15 16 16 16 16 16 16 16 16 16 16 16 15 15 15 14 14 14 15 15 15 15 15 15 15 15 15
16 16 16 16 16 15 16 16 15 15 15 15 15 15 15 15 15 15 15 16 16 16 16 16 16 16 15 15 15 15 14 14 14 14 14 15 15 15 15 15 15 14 14
16 16 16 16 16 16 16 15 15 15 15 15 15 15 15 15 15 15 15 16 16 16 16 16 16 15 15 14 14 14 14 14 14 14 14 14 14 14 14 14 14 14 14
16 16 16 16 16 16 16 15 15 15 15 15 15 15 15 15 15 15 15 15 15 15 15 15 15 14 14 14 14 14 14 14 14 14 14 14 14 14 14 14 14 14 14
16 16 16 16 16 16 16 15 15 15 15 15 15 15 15 15 14 14 14 15 15 14 14 15 14 14 14 14 14 14 14 14 14 13 14 14 14 14 14 14 14 13 13
16 16 16 16 16 16 16 15 15 15 15 15 15 15 14 14 14 14 14 14 14 14 14 14 14 14 14 14 14 14 14 14 14 13 13 13 14 14 14 13 13 13 13
16 16 16 16 16 16 16 16 15 15 15 15 15 15 14 14 14 14 14 14 14 14 14 14 14 14 14 14 14 14 14 14 14 14 13 13 13 13 13 13 13 13 12
16 16 16 16 16 16 16 15 15 15 15 15 15 15 15 14 14 14 14 14 14 14 14 14 14 14 14 14 14 14 13 13 14 14 14 13 13 13 13 13 13 12 12
16 16 16 16 16 16 15 15 15 15 15 15 15 15 15 14 14 14 14 14 14 14 14 14 14 14 13 13 13 13 13 14 14 14 14 14 13 13 13 13 12 12 12
16 16 16 16 16 16 15 15 15 15 15 15 15 14 14 14 14 14 14 14 14 14 14 14 13 13 13 13 13 13 13 13 14 14 14 13 13 13 13 12 12 12 12
16 16 16 16 16 16 15 15 15 15 15 15 15 14 14 14 14 14 14 14 14 14 14 13 13 13 13 13 12 12 12 13 13 13 13 13 13 13 12 12 12 12 11
16 16 16 16 16 15 15 15 15 15 15 14 14 15 14 14 14 14 14 14 14 14 13 13 13 13 13 13 12 12 12 12 13 13 13 12 12 12 12 12 11 11 11
16 16 16 16 16 15 15 15 15 15 15 15 15 15 15 14 14 14 14 14 14 14 13 13 13 13 12 12 12 12 12 12 12 12 12 12 12 11 11 11 11 11 10
16 16 16 16 16 15 15 15 15 15 15 15 15 15 14 14 14 14 14 14 14 13 13 13 13 13 12 12 12 12 11 11 11 11 11 11 11 11 11 11 10 10 10
15 15 15 15 15 15 15 15 15 14 14 14 14 14 14 14 14 14 14 14 13 13 13 13 13 12 12 12 12 11 11 11 11 11 11 11 10 10 10 10 10 9 9
Wind_Speed
14 19 22 21 22 21 21 19 18 17 16 16 15 14 14 15 15 15 15 16 16 17 18 18 19 19 20 20 20 19 19 19 20 20 20 20 20 20 20 19 18 17 19
19 22 23 22 22 21 21 19 18 17 16 15 15 14 14 14 15 15 16 16 17 17 18 18 18 19 19 19 18 17 16 16 16 17 19 20 20 21 21 20 18 17 18
21 23 23 23 22 22 21 19 18 17 16 15 15 15 15 15 15 15 16 17 18 18 18 19 18 19 19 18 17 15 12 10 9 9 14 17 18 19 19 19 19 19 19
21 22 22 23 23 22 21 19 18 17 16 15 15 14 15 15 16 16 17 18 19 18 19 18 18 18 17 16 15 13 10 10 10 13 16 17 16 17 18 18 18 18 18
18 21 23 24 23 22 21 19 18 17 16 15 15 15 15 16 16 16 17 18 18 18 18 18 17 17 16 15 13 11 10 10 13 17 18 18 16 16 17 17 17 17 17
17 21 24 23 23 22 20 19 18 17 16 15 15 15 15 16 16 16 17 17 17 17 17 17 16 15 15 13 11 10 10 11 14 18 18 17 15 15 15 16 16 16 16
17 21 23 23 23 21 20 19 18 16 15 15 15 15 15 16 16 16 16 16 16 16 16 16 15 14 13 12 10 9 11 11 15 18 17 15 14 14 14 14 14 14 14
17 19 22 22 22 21 20 19 17 16 15 15 15 15 15 16 16 15 15 15 15 14 14 14 14 13 12 10 8 8 10 10 12 16 16 14 13 13 13 13 12 12 13
16 17 18 19 20 20 19 18 17 16 16 15 15 16 16 16 15 15 13 13 13 13 13 13 12 12 10 9 6 6 7 8 8 12 13 12 11 11 11 11 11 11 11
14 15 15 17 18 17 17 18 18 17 16 15 16 17 17 16 15 14 13 13 12 12 12 11 11 10 8 7 4 2 4 4 5 12 12 10 10 9 9 9 9 9 9
13 13 13 14 16 17 17 17 17 17 16 16 16 18 17 14 14 12 13 12 11 11 10 10 9 8 7 5 3 2 4 1 8 11 11 10 8 7 6 6 7 7 7
12 13 12 12 12 15 15 16 15 14 15 14 14 15 14 13 13 14 15 12 11 10 9 8 8 7 7 6 6 5 6 4 7 10 10 10 7 5 5 4 4 4 5
11 11 11 11 11 11 10 13 12 12 13 13 16 16 12 12 14 14 12 11 10 10 9 8 8 9 9 8 8 8 5 2 4 7 11 10 7 5 4 3 3 3 3
10 11 11 10 9 10 11 9 9 9 9 9 13 14 10 9 9 10 10 11 12 10 10 10 10 11 8 6 7 6 3 1 3 7 11 10 8 6 5 4 4 4 3
9 10 10 10 9 9 8 7 7 7 7 9 11 11 10 7 5 7 8 10 10 10 10 8 8 6 5 6 5 3 1 2 2 4 8 11 10 8 7 7 6 6 6
9 9 8 9 9 8 7 6 6 8 9 10 10 10 11 9 7 6 5 6 6 6 8 7 6 3 3 3 2 2 3 5 5 6 8 11 12 12 11 10 9 9 8
9 10 9 9 8 8 7 6 6 8 9 8 9 10 10 9 8 6 3 4 6 6 6 5 4 2 2 1 1 3 5 5 4 5 7 10 12 14 14 13 12 11 10
8 9 9 9 9 8 7 6 5 6 8 8 10 10 10 10 10 7 3 4 7 7 5 3 2 2 2 2 3 3 3 4 5 7 8 9 10 11 14 15 14 13 12
8 9 9 9 9 8 7 6 5 6 6 8 9 9 10 10 11 9 5 5 7 5 3 3 2 2 3 3 3 3 3 3 5 7 7 9 9 10 11 13 15 15 13
6 8 9 9 8 8 6 5 4 4 4 6 7 8 9 9 10 9 6 6 6 3 3 3 4 3 3 3 3 4 4 5 5 5 7 8 9 9 9 9 11 13 14
5 6 8 8 8 7 6 6 5 5 4 4 4 6 8 8 9 8 4 4 4 4 4 5 4 4 4 2 2 3 5 7 8 7 6 5 5 7 8 7 7 7 8
7 6 6 8 8 8 6 6 4 4 4 4 4 5 7 7 8 7 5 3 3 4 5 5 4 3 3 3 3 2 4 4 5 6 4 4 3 3 4 5 4 4 4
7 7 6 7 8 8 7 5 4 4 3 3 4 4 5 7 7 6 6 4 3 4 4 5 5 5 4 4 4 4 3 4 3 1 2 2 2 1 1 2 2 2 2
7 6 6 6 7 7 8 7 7 6 5 5 5 5 5 6 6 6 6 5 4 4 4 4 4 3 4 4 4 5 5 3 2 3 2 1 1 1 1 1 1 1 1
7 6 5 6 6 7 8 8 7 6 5 4 4 6 5 4 5 5 4 3 3 3 4 4 3 4 4 5 4 3 4 4 4 4 4 3 1 1 1 1 1 1 1
7 6 5 6 6 6 7 7 7 7 6 5 5 5 4 3 3 4 4 3 3 2 3 3 3 4 4 5 4 3 3 3 4 4 6 5 4 2 1 1 1 1 2
Wind_Direction
133 140 142 138 135 133 131 128 125 121 117 112 107 102 97 93 94 94 95 95 96 97 96 95 93 91 90 89 86 85 85 85 85 83 77 70 68 67 65 66 66 61 64
134 140 141 138 136 135 132 129 126 123 119 115 110 106 102 98 96 96 97 97 97 97 95 94 94 92 90 89 88 88 88 90 92 91 82 72 68 68 66 65 65 65 64
133 140 141 138 137 135 132 130 128 125 123 119 114 109 105 102 98 97 96 96 96 95 95 93 93 91 90 88 88 87 85 81 80 87 85 78 70 68 67 66 65 64 64
134 141 143 139 138 136 134 132 130 128 126 122 117 112 107 104 99 97 96 96 95 94 94 94 93 92 90 89 87 84 74 55 57 77 80 75 69 68 66 64 63 63 62
136 142 141 141 139 137 136 134 133 131 128 124 119 116 111 107 102 100 97 97 96 95 95 95 94 93 90 88 85 77 57 40 67 80 82 76 71 70 67 65 64 63 63
137 137 141 142 140 139 138 137 135 134 131 126 122 118 113 110 107 104 102 101 100 100 99 97 96 94 90 87 80 63 40 37 74 79 77 76 73 73 71 68 66 65 64
136 135 144 142 142 142 141 139 138 136 134 131 127 123 118 114 112 109 108 106 105 104 102 100 98 94 90 86 74 52 34 45 82 84 80 76 75 74 73 71 68 67 67
133 137 145 143 143 143 143 142 140 139 138 135 131 126 121 119 117 115 113 112 109 108 105 103 101 97 92 86 71 48 35 45 81 92 89 81 77 76 75 73 70 69 69
133 138 144 146 145 145 145 144 143 141 139 135 132 127 123 122 121 119 118 116 115 113 110 107 105 101 97 90 76 53 34 40 71 95 94 89 83 80 78 76 74 73 72
136 142 149 151 151 149 147 147 145 143 140 134 132 131 128 127 126 126 121 118 118 117 116 114 111 109 106 104 95 46 352 350 92 100 102 100 93 86 83 81 79 77 76
143 148 153 155 156 154 152 151 147 145 142 136 136 139 140 141 141 139 128 125 123 123 124 123 124 128 130 137 154 249 298 304 100 101 107 113 105 97 92 87 85 83 81
151 154 156 158 157 155 153 154 155 153 153 155 152 158 169 162 148 136 134 135 136 136 136 141 151 164 174 185 200 231 257 216 131 122 129 131 123 116 113 108 102 99 95
156 156 159 160 156 151 149 160 161 161 168 172 163 178 178 141 130 134 142 146 152 156 160 167 184 207 213 192 190 221 240 67 104 124 142 145 144 148 154 154 148 141 132
163 160 160 160 155 153 155 156 155 156 167 163 164 176 161 144 147 156 162 171 175 185 180 182 208 218 210 187 208 222 192 143 127 130 151 161 167 179 193 197 196 194 193
170 166 161 160 160 157 153 152 157 155 162 155 158 170 157 148 161 162 166 169 182 185 173 197 222 206 194 211 222 211 183 226 195 169 172 180 187 197 207 216 219 218 217
173 173 166 162 161 159 154 156 158 159 161 153 153 170 164 162 166 159 160 165 187 175 176 202 227 191 196 222 233 218 227 232 225 212 191 195 201 207 213 220 227 229 230
172 170 171 170 165 163 160 162 156 157 158 152 158 174 169 167 162 158 164 166 185 185 185 204 227 197 214 204 249 260 253 247 237 226 216 207 207 213 217 222 229 233 235
167 169 171 173 172 170 161 157 156 161 155 154 162 174 174 173 168 165 174 179 188 188 190 191 199 194 222 216 243 253 244 237 244 249 243 225 210 210 216 222 228 233 236
170 170 169 167 169 169 163 160 159 159 156 160 163 169 177 178 173 171 183 193 197 188 185 191 199 204 222 228 241 253 255 248 239 240 243 241 227 212 205 214 223 229 233
172 169 168 169 169 165 158 154 151 153 155 158 161 165 174 180 178 176 181 196 196 176 186 193 202 220 230 234 250 256 251 249 240 229 230 235 235 221 211 210 214 224 229
170 171 167 167 169 161 161 163 164 171 165 153 153 164 172 176 176 174 175 189 189 182 191 200 197 214 224 229 258 279 266 245 237 228 217 217 224 218 207 206 203 207 218
172 173 168 164 163 164 166 166 162 159 165 166 158 170 178 178 177 179 176 181 183 189 198 206 201 201 212 198 195 241 288 294 258 225 195 194 207 205 187 194 200 213 208
171 172 174 168 165 164 161 152 147 143 146 165 173 179 184 185 183 181 186 183 185 188 200 206 201 195 213 220 205 203 225 250 308 298 208 187 187 174 175 166 179 210 220
169 169 170 166 164 161 159 161 165 173 179 186 179 179 178 181 181 184 189 193 194 196 206 214 209 206 205 222 228 228 228 222 242 288 295 245 183 174 170 144 146 193 237
157 157 161 160 161 160 164 169 175 182 182 172 166 171 176 174 173 175 185 192 202 203 210 213 214 216 212 217 218 220 238 248 229 232 257 256 250 226 191 147 128 116 117
146 147 155 159 162 158 163 170 178 181 175 170 174 171 171 168 168 167 183 190 199 202 204 210 224 227 226 229 228 218 211 217 218 224 240 240 236 220 187 106 98 91 79
Height
1516 1520 1523 1527 1530 1533 1536 1538 1540 1541 1542 1543 1544 1545 1546 1546 1547 1548 1550 1551 1552 1554 1555 1556 1557 1558 1559 1559 1560 1561 1562 1562 1563 1563 1563 1563 1563 1563 1563 1563 1563 1563 1563
1513 1519 1523 1527 1530 1534 1536 1539 1541 1542 1543 1545 1546 1547 1547 1548 1549 1550 1552 1553 1554 1556 1557 1558 1559 1560 1561 1562 1563 1564 1565 1565 1566 1566 1566 1566 1566 1566 1566 1566 1566 1565 1565
1514 1519 1523 1527 1531 1534 1537 1540 1542 1543 1545 1546 1547 1548 1549 1550 1551 1552 1554 1555 1556 1558 1559 1560 1561 1562 1563 1564 1565 1566 1567 1568 1568 1568 1569 1569 1569 1568 1568 1568 1568 1568 1567
1515 1519 1523 1528 1532 1535 1538 1541 1543 1545 1546 1548 1549 1550 1551 1552 1553 1555 1556 1557 1558 1560 1561 1562 1563 1564 1565 1566 1568 1569 1570 1571 1571 1571 1571 1571 1571 1570 1570 1570 1570 1570 1569
1516 1520 1524 1528 1532 1536 1539 1541 1544 1546 1547 1549 1550 1552 1553 1554 1555 1556 1558 1559 1560 1562 1563 1564 1565 1566 1568 1569 1570 1571 1572 1573 1573 1573 1573 1573 1572 1572 1572 1572 1571 1571 1571
1517 1521 1525 1529 1533 1536 1539 1542 1545 1547 1548 1550 1552 1553 1554 1556 1557 1558 1560 1561 1562 1564 1565 1566 1567 1569 1570 1571 1572 1573 1574 1575 1575 1575 1575 1575 1574 1574 1573 1573 1573 1572 1572
1518 1521 1526 1530 1534 1537 1540 1543 1545 1547 1549 1551 1553 1555 1556 1557 1558 1560 1561 1563 1564 1565 1567 1568 1569 1571 1572 1573 1574 1575 1576 1576 1576 1576 1576 1576 1576 1576 1575 1575 1574 1574 1573
1519 1522 1526 1530 1534 1538 1541 1543 1546 1548 1550 1552 1554 1556 1557 1558 1560 1561 1563 1564 1566 1567 1568 1570 1571 1572 1574 1575 1576 1577 1577 1578 1578 1578 1578 1578 1577 1577 1576 1576 1576 1575 1575
1520 1523 1527 1531 1535 1538 1541 1544 1546 1549 1551 1553 1555 1556 1558 1560 1561 1563 1564 1566 1567 1569 1570 1571 1573 1574 1575 1576 1577 1578 1579 1579 1579 1579 1579 1579 1579 1578 1578 1577 1577 1576 1576
1521 1524 1527 1531 1534 1538 1541 1544 1547 1549 1552 1554 1555 1557 1559 1561 1562 1564 1566 1567 1569 1570 1571 1573 1574 1575 1577 1578 1579 1579 1580 1580 1580 1580 1580 1580 1580 1579 1579 1578 1578 1577 1577
1522 1524 1528 1531 1534 1538 1541 1544 1547 1550 1552 1554 1556 1558 1560 1561 1563 1565 1566 1568 1570 1571 1573 1574 1575 1576 1577 1578 1579 1580 1581 1581 1581 1581 1581 1581 1580 1580 1579 1579 1578 1578 1578
1521 1525 1528 1531 1534 1538 1540 1544 1547 1549 1552 1554 1556 1558 1560 1562 1563 1565 1567 1568 1570 1572 1573 1574 1576 1577 1578 1579 1580 1581 1581 1582 1581 1581 1581 1581 1581 1580 1580 1579 1579 1578 1578
1520 1524 1528 1531 1534 1537 1540 1543 1546 1549 1551 1554 1556 1558 1560 1562 1564 1565 1567 1568 1570 1572 1573 1574 1576 1577 1577 1579 1580 1581 1581 1582 1582 1581 1581 1581 1580 1580 1579 1579 1578 1578 1577
1520 1524 1527 1531 1534 1536 1539 1543 1546 1548 1551 1554 1556 1559 1561 1562 1564 1565 1567 1568 1570 1571 1573 1574 1575 1576 1578 1579 1580 1580 1581 1581 1581 1580 1580 1580 1580 1579 1579 1578 1578 1577 1577
1519 1522 1526 1529 1533 1536 1539 1542 1545 1548 1551 1554 1556 1558 1560 1562 1563 1565 1566 1568 1569 1571 1572 1574 1575 1576 1577 1578 1579 1579 1580 1580 1580 1579 1579 1578 1578 1578 1578 1577 1577 1576 1576
1517 1521 1525 1528 1531 1535 1537 1540 1544 1547 1550 1552 1555 1557 1559 1561 1563 1564 1566 1567 1569 1570 1571 1573 1574 1575 1576 1577 1577 1578 1578 1578 1578 1578 1577 1577 1576 1576 1576 1575 1575 1574 1574
1516 1519 1523 1526 1530 1533 1536 1539 1543 1545 1548 1551 1553 1555 1558 1560 1561 1563 1565 1566 1568 1569 1570 1571 1573 1573 1574 1575 1575 1575 1575 1576 1576 1575 1575 1574 1574 1574 1573 1573 1573 1572 1571
1514 1517 1520 1524 1527 1531 1534 1537 1541 1544 1546 1549 1551 1553 1555 1557 1559 1561 1562 1564 1566 1567 1568 1569 1570 1571 1572 1572 1572 1572 1573 1573 1573 1573 1572 1572 1571 1571 1570 1570 1570 1569 1569
1512 1515 1518 1521 1525 1528 1532 1535 1538 1541 1544 1546 1549 1551 1553 1555 1557 1558 1560 1562 1563 1565 1566 1567 1568 1568 1569 1569 1569 1569 1569 1569 1569 1569 1569 1569 1568 1568 1567 1567 1566 1566 1566
1510 1513 1516 1519 1522 1525 1529 1532 1536 1538 1541 1544 1546 1548 1550 1552 1554 1556 1557 1559 1560 1562 1563 1564 1565 1565 1566 1566 1566 1566 1566 1565 1565 1565 1565 1565 1564 1564 1564 1563 1562 1562 1562
1508 1511 1513 1516 1519 1522 1526 1529 1532 1535 1538 1540 1543 1545 1548 1549 1551 1553 1554 1556 1557 1558 1559 1561 1561 1562 1562 1563 1563 1562 1561 1561 1561 1560 1560 1560 1560 1560 1560 1559 1558 1558 1558
1505 1508 1511 1513 1516 1519 1523 1526 1529 1532 1535 1537 1540 1542 1544 1546 1548 1549 1551 1552 1553 1555 1556 1557 1558 1558 1558 1559 1560 1559 1558 1557 1556 1556 1556 1556 1556 1556 1556 1556 1555 1554 1554
1502 1505 1508 1510 1513 1516 1519 1523 1526 1529 1531 1534 1536 1538 1541 1543 1544 1546 1547 1548 1549 1551 1552 1553 1554 1554 1554 1555 1556 1557 1556 1554 1553 1553 1553 1552 1552 1552 1552 1551 1551 1550 1550
1498 1502 1505 1508 1511 1514 1516 1519 1521 1524 1527 1529 1532 1534 1537 1538 1540 1541 1543 1544 1545 1546 1547 1548 1549 1550 1550 1550 1551 1551 1552 1551 1551 1549 1549 1549 1548 1548 1547 1547 1547 1546 1545
1495 1498 1501 1504 1507 1510 1513 1516 1518 1521 1524 1526 1528 1530 1532 1534 1535 1537 1539 1540 1540 1541 1542 1543 1544 1545 1545 1545 1546 1546 1546 1546 1546 1546 1544 1543 1543 1543 1543 1542 1541 1541 1540
1491 1494 1498 1501 1504 1507 1510 1512 1515 1517 1520 1522 1524 1526 1528 1529 1531 1532 1534 1535 1535 1536 1537 1537 1538 1539 1539 1539 1540 1540 1540 1540 1540 1540 1539 1538 1537 1537 1537 1537 1536 1536 1535